Location: Newark
(31.5350°N, 35.0986°E)
Time: 09:14:23
(UTC+00:00)

Courier 1B - Pass Details

Date: 29 September 2019
Orbit: 962 x 1209 km, 28.3° (Epoch: 18 October)

Event Time Altitude Azimuth Distance (km) Brightness Sun altitude
Exits shadow 00:36:03 33° 109° (ESE) 1,553 8.8 -37.4°
Drops below altitude 10° 00:39:45 10° 92° (E) 2,726 10.5 -36.6°
Sets 00:42:30 0° 88° (E) 3,700 11.4 -36.1°
